Starlink 32350

operational
NORAD ID: 61063 Int'l Des: 2024-164 Owner: SPXS Country: US Constellation: starlink
LEOCIRCULAR

Starlink 32350について

説明を読み込み中...

リアルタイム位置

3D地球を読み込み中...

次回通過

高度履歴

Altitude vs Time

uPlot chart will show altitude changes over time

軌道要素

1 61063U 24164P 25354.50087885 .00000786 00000-0 38655-4 0 9995
2 61063 53.1598 98.9262 0001079 80.0989 280.0133 15.30193437 71355
Epoch: Dec 20, 2025 • Age: 25 hours

現在のステータス

高度 475.9 km
速度 7.63 km/s
衛星直下点 26.51°N, 173.23°W
打ち上げ日 Sep 13, 2024
運用期間 1.2 years
タイプ internet

技術仕様

分類 Payload
質量 730.00 kg
乾燥質量 700.00 kg
総質量 730.00 kg
長さ 0.30 m
直径 4.10 m
スパン 29.00 m
形状 Box + pan
製造者 SPXS
バスタイプ Starlink V2M
フェーズステータス In Orbit
所有者/国 SPXS/US

大規模コンステレーション

Loading constellations...